Location: Sungai Bunut
(2.6333°N, 113.7333°E)
Time: 22:02:51
(UTC+00:00)

Vanguard 2 Rocket - All Passes

Search period start: 06 December 2023 00:00
Search period end: 16 December 2023 00:00
Orbit: 552 x 3312 km, 32.9° (Epoch: 05 December)

Date Brightness Start Highest point End Pass type
(mag) Time Alt. Az. Time Alt. Az. Time Alt. Az.
06 Dec - 01:30:08 10° SSW 01:36:51 32° SE 01:47:38 10° E daylight
06 Dec - 03:41:19 10° WSW 03:51:18 76° NW 04:08:48 10° NE daylight
06 Dec - 05:57:17 10° W 06:10:03 35° NNW 06:27:22 10° NE daylight
06 Dec - 08:19:22 10° NW 08:33:06 23° N 08:46:59 10° NE daylight
06 Dec - 10:42:05 10° NW 10:57:03 26° NNE 11:08:41 10° ENE visible
06 Dec - 13:01:07 10° NW 13:17:01 49° NNE 13:26:26 10° E visible
06 Dec - 15:20:15 10° WNW 15:32:23 57° SW 15:39:09 10° SE visible
07 Dec - 00:31:00 10° S 00:35:10 16° SE 00:40:38 10° ESE daylight
07 Dec - 02:40:04 10° SW 02:48:29 78° SE 03:03:49 10° ENE daylight
07 Dec - 04:54:05 10° W 05:05:26 43° NNW 05:22:48 10° NE daylight
07 Dec - 07:13:49 10° WNW 07:26:56 25° N 07:41:57 10° NE daylight
07 Dec - 09:36:45 10° NW 09:51:20 23° N 10:04:03 10° NE daylight
07 Dec - 11:56:29 10° NW 12:13:05 39° NNE 12:24:01 10° E visible
07 Dec - 14:15:15 10° NW 14:30:15 88° SW 14:38:24 10° SE visible
07 Dec - 16:37:20 10° W 16:43:31 19° SW 16:48:01 10° S night (unlit)
08 Dec - 01:39:25 10° SSW 01:46:21 50° SE 01:58:33 10° ENE daylight
08 Dec - 03:51:46 10° WSW 04:01:32 55° NNW 04:18:10 10° NE daylight
08 Dec - 06:09:10 10° WNW 06:21:17 28° NNW 06:36:57 10° NE daylight
08 Dec - 08:31:21 10° NW 08:45:07 22° N 08:58:41 10° NE daylight
08 Dec - 10:51:49 10° NW 11:08:25 32° NNE 11:20:43 10° ENE visible
08 Dec - 13:10:25 10° NW 13:27:23 68° NNE 13:37:04 10° ESE visible
08 Dec - 15:30:56 10° WNW 15:41:56 37° SW 15:48:35 10° SSE visible
09 Dec - 00:39:26 10° SSW 00:44:46 27° SE 00:52:54 10° E daylight
09 Dec - 02:50:08 10° WSW 02:58:24 74° NNW 03:13:30 10° NE daylight
09 Dec - 05:05:29 10° WNW 05:16:19 33° NNW 05:32:04 10° NE daylight
09 Dec - 07:26:08 10° NW 07:38:49 22° N 07:52:53 10° NE daylight
09 Dec - 09:47:07 10° NW 10:03:01 28° NNE 10:16:24 10° ENE daylight
09 Dec - 12:05:43 10° NW 12:23:44 52° NNE 12:35:04 10° ESE visible
09 Dec - 14:25:14 10° WNW 14:39:58 61° SW 14:48:13 10° SE visible
09 Dec - 16:51:56 10° SW 16:53:17 10° SW 16:54:31 10° SSW night (unlit)
09 Dec - 23:41:16 10° SSE 23:43:20 12° SE 23:45:43 10° ESE daylight
10 Dec - 01:49:06 10° SW 01:56:02 77° SE 02:08:47 10° ENE daylight
10 Dec - 04:02:41 10° W 04:12:08 40° NNW 04:27:22 10° NE daylight
10 Dec - 06:21:25 10° NW 06:32:53 23° N 06:47:04 10° NE daylight
10 Dec - 08:42:29 10° NW 08:57:04 24° N 09:11:01 10° ENE daylight
10 Dec - 11:01:12 10° NW 11:19:21 42° NNE 11:32:16 10° E visible
10 Dec - 13:19:58 10° NW 13:37:22 88° SW 13:47:13 10° SE visible
10 Dec - 15:42:30 10° W 15:51:27 24° SW 15:57:31 10° S visible
11 Dec - 00:48:37 10° SSW 00:54:19 44° SE 01:03:57 10° ENE daylight
11 Dec - 03:00:38 10° WSW 03:08:42 51° NNW 03:22:50 10° NE daylight
11 Dec - 05:17:23 10° WNW 05:27:35 25° NNW 05:41:34 10° NE daylight
11 Dec - 07:37:57 10° NW 07:50:50 22° N 08:04:43 10° NE daylight
11 Dec - 09:56:54 10° NW 10:14:18 34° NNE 10:28:28 10° E daylight
11 Dec - 12:15:02 10° NW 12:34:00 70° NNE 12:45:37 10° ESE visible
11 Dec - 14:35:49 10° WNW 14:49:29 42° SW 14:57:39 10° SSE visible
11 Dec - 23:48:52 10° S 23:53:00 22° SE 23:58:46 10° E daylight
12 Dec - 01:59:11 10° WSW 02:06:00 70° NNW 02:18:29 10° NE daylight
12 Dec - 04:14:09 10° WNW 04:23:05 29° NNW 04:36:31 10° NE daylight
12 Dec - 06:33:37 10° NW 06:44:44 21° N 06:58:01 10° NE daylight
12 Dec - 08:52:49 10° NW 09:08:41 28° NNE 09:23:28 10° ENE daylight
12 Dec - 11:10:30 10° NW 11:29:53 55° NNE 11:43:16 10° ESE visible
12 Dec - 13:29:54 10° WNW 13:47:02 65° SW 13:57:01 10° SE visible
12 Dec - 15:55:31 10° WSW 16:01:11 15° SW 16:05:38 10° S visible
13 Dec - 00:58:16 10° SW 01:04:00 75° SE 01:14:14 10° ENE daylight
13 Dec - 03:11:37 10° W 03:19:21 35° NNW 03:31:57 10° NE daylight
13 Dec - 05:29:38 10° NW 05:39:11 21° N 05:51:34 10° NE daylight
13 Dec - 07:48:57 10° NW 08:02:42 24° NNE 08:17:13 10° ENE daylight
13 Dec - 10:06:21 10° NW 10:25:07 44° NNE 10:40:00 10° E visible
13 Dec - 12:24:35 10° NW 12:43:54 88° SW 12:55:44 10° SE visible
13 Dec - 14:47:13 10° W 14:59:00 28° SW 15:06:43 10° SSE visible
13 Dec - 23:57:53 10° SSW 00:02:35 39° SE 00:09:59 10° ENE daylight
14 Dec - 02:09:44 10° W 02:16:21 45° NNW 02:27:48 10° NE daylight
14 Dec - 04:26:08 10° WNW 04:34:22 22° N 04:45:50 10° NE daylight
14 Dec - 06:45:17 10° NW 06:56:41 21° N 07:09:58 10° NE daylight
14 Dec - 09:02:35 10° NW 09:19:50 35° NNE 09:35:35 10° E daylight
14 Dec - 11:19:51 10° NW 11:40:02 72° NE 11:53:46 10° ESE visible
14 Dec - 13:40:23 10° WNW 13:56:32 46° SW 14:06:28 10° SSE visible
14 Dec - 22:58:21 10° S 23:01:25 17° SE 23:05:15 10° E daylight
15 Dec - 01:08:23 10° WSW 01:14:01 66° NNW 01:23:58 10° NE daylight
15 Dec - 03:23:12 10° WNW 03:30:20 24° NNW 03:40:57 10° NNE daylight
15 Dec - 05:41:48 10° NW 05:50:59 19° N 06:02:29 10° NE daylight
15 Dec - 07:59:11 10° NNW 08:14:12 28° NNE 08:29:49 10° ENE daylight
15 Dec - 10:15:41 10° NW 10:35:31 56° NNE 10:50:59 10° ESE visible
15 Dec - 12:34:29 10° WNW 12:53:31 67° SW 13:05:30 10° SE visible
15 Dec - 14:59:46 10° W 15:08:43 19° SW 15:15:18 10° S visible
